星链-32079 (STARLINK-32079)

导读 | 星芒AI

STARLINK-32079 是 SpaceX Starlink 卫星互联网项目中的一颗低轨卫星,属于第 6 批次部署的星链卫星之一。该卫星于 2023 年发射,运行在约 550 公里的轨道高度,旨在为全球用户提供高速互联网服务。Starlink 项目通过部署数千颗卫星,构建覆盖全球的宽带网络,特别服务于偏远地区。STARLINK-32079 采用先进推进系统和激光通信技术,具备高带宽和低延迟特性,是实现全球互联网接入目标的重要组成部分。

基本信息
目录编号:
60336
目录名称:
STARLINK-32079
国际标识:
2024-136H
轨道中心:
EARTH
卫星名称:
星链-32079 (STARLINK-32079)
卫星全名:
星链-32079 (STARLINK-32079)
卫星状态:
在轨 (已飞行505 天)
发射日期:
2024-08-02 UTC
国别 :
美国 (US)
星等 :
--
轨道信息
数据来源 国际轨道数据
星历时间: 2025-12-20T00:22:26+0800
11小时前
查看轨道信息
半长轴: 6853.367km
偏心率: 0.0001033
轨道倾角: 53.161°
近地点辐角 85.824°
升交点赤经 87.396°
平近点角 274.288°
近地点: 474.522km
远地点: 475.938km
周期: 94.106分钟
每日圈数: 15.30195
详细信息
卫星平台:
Starlink v2.0 mini
运营商:
太空探索技术公司
运营商所在国:
美国
制造商(研发单位):
太空探索技术公司
制造商所在国:
美国
使用方式:
暂无
卫星简介
星链(Starlink)计划是由太空探索技术公司(SpaceX)提出的一个巨型低轨卫星互联网星座项目,计划在2019年至2024年间在太空搭建由约1.2万颗卫星组成的“星链”网络,其中1584颗将部署在地球上空550千米处的近地轨道,并从2020年开始工作。该卫星仍在工作。
2D轨道图
3D轨道图
轨道高度分析图
轨道倾角分析图
轨道综合分析图
查看轨道综合分析图